N390CJ SBJD-SNTO

Flight info

Callsign N390CJ
Flight time N/A
Altitude 37000
Route NUXEL UZ23 ILPIR DCT 182359S0422510W DCT TFO/N0150F030 VFR
Aircraft C25B/M-SDE2E3FGHRWXY/LB1

Departure

Time 2026-04-28 23:22
Airport Comte. Rolim Adolfo Amaro–Jundiaí State Airport (SBJD)

Arrival

Time N/A
Airport Juscelino Kubitscheck Airport (SNTO)
Time Latitude Longitude Altitude Speed Heading
2026-04-28 23:21 -23.18256 -46.77330 6016 ft 281 kts 61°
2026-04-28 23:22 -23.17508 -46.75381 6008 ft 283 kts 69°
2026-04-28 23:22 -23.16783 -46.73413 6013 ft 278 kts 63°
2026-04-28 23:22 -23.15943 -46.71511 6007 ft 280 kts 64°
2026-04-28 23:22 -23.15159 -46.69568 6010 ft 282 kts 65°
2026-04-28 23:23 -23.14387 -46.67677 6620 ft 261 kts 65°
2026-04-28 23:23 -23.13712 -46.65877 6991 ft 260 kts 65°
2026-04-28 23:23 -23.12974 -46.64034 6997 ft 273 kts 64°
2026-04-28 23:23 -23.12225 -46.62087 7005 ft 285 kts 68°
2026-04-28 23:24 -23.11501 -46.60044 7013 ft 292 kts 66°
2026-04-28 23:24 -23.10719 -46.58011 7019 ft 290 kts 66°
2026-04-28 23:24 -23.09966 -46.55978 7012 ft 289 kts 66°
2026-04-28 23:24 -23.09224 -46.53980 7015 ft 288 kts 66°
2026-04-28 23:25 -23.08485 -46.51968 7013 ft 286 kts 66°
2026-04-28 23:25 -23.07737 -46.49965 7015 ft 285 kts 66°
2026-04-28 23:25 -23.07002 -46.47976 7016 ft 284 kts 67°
2026-04-28 23:25 -23.06261 -46.45984 7010 ft 282 kts 66°
2026-04-28 23:26 -23.05526 -46.44009 7010 ft 282 kts 67°
2026-04-28 23:26 -23.04802 -46.42036 7005 ft 281 kts 66°
2026-04-28 23:26 -23.04057 -46.40072 6998 ft 281 kts 66°
2026-04-28 23:26 -23.03338 -46.38113 7135 ft 273 kts 66°
2026-04-28 23:27 -23.02655 -46.36275 7724 ft 256 kts 66°
2026-04-28 23:27 -23.01984 -46.34468 7936 ft 258 kts 65°
2026-04-28 23:27 -23.01298 -46.32652 8180 ft 261 kts 66°
2026-04-28 23:27 -23.00629 -46.30851 8696 ft 260 kts 66°
2026-04-28 23:28 -22.99947 -46.28995 9139 ft 262 kts 65°
2026-04-28 23:28 -22.99262 -46.27179 9603 ft 263 kts 65°
2026-04-28 23:28 -22.98578 -46.25330 10052 ft 265 kts 65°
2026-04-28 23:28 -22.97808 -46.23507 10425 ft 265 kts 52°
2026-04-28 23:29 -22.96599 -46.22010 10818 ft 264 kts 40°
2026-04-28 23:29 -22.95090 -46.20900 11232 ft 261 kts 23°
2026-04-28 23:29 -22.94014 -46.20297 11474 ft 264 kts 27°
2026-04-28 23:29 -22.91885 -46.18992 12033 ft 266 kts 25°
2026-04-28 23:30 -22.90212 -46.18047 12447 ft 268 kts 25°
2026-04-28 23:30 -22.88583 -46.17093 12868 ft 270 kts 25°
2026-04-28 23:30 -22.86913 -46.16126 13237 ft 272 kts 26°
2026-04-28 23:30 -22.85237 -46.15145 13631 ft 275 kts 25°
2026-04-28 23:31 -22.84093 -46.14485 13903 ft 276 kts 25°
2026-04-28 23:31 -22.82413 -46.13502 14249 ft 279 kts 25°
2026-04-28 23:31 -22.80697 -46.12510 14643 ft 280 kts 25°
2026-04-28 23:31 -22.78965 -46.11502 15007 ft 282 kts 25°
2026-04-28 23:32 -22.77229 -46.10494 15384 ft 284 kts 25°
2026-04-28 23:32 -22.75479 -46.09478 15750 ft 285 kts 24°
2026-04-28 23:32 -22.73728 -46.08459 16118 ft 287 kts 24°
2026-04-28 23:32 -22.71962 -46.07437 16482 ft 289 kts 24°
2026-04-28 23:33 -22.70202 -46.06413 16842 ft 291 kts 24°
2026-04-28 23:33 -22.68387 -46.05366 17206 ft 292 kts 24°
2026-04-28 23:33 -22.66611 -46.04332 17560 ft 295 kts 24°
2026-04-28 23:33 -22.64797 -46.03281 17932 ft 296 kts 24°
2026-04-28 23:34 -22.62975 -46.02224 18284 ft 298 kts 24°
2026-04-28 23:34 -22.61133 -46.01161 18612 ft 300 kts 24°
2026-04-28 23:34 -22.59293 -46.00089 18922 ft 301 kts 23°
2026-04-28 23:34 -22.57441 -45.99024 19250 ft 302 kts 24°
2026-04-28 23:35 -22.55581 -45.97941 19559 ft 303 kts 23°
2026-04-28 23:35 -22.53713 -45.96863 19883 ft 305 kts 23°
2026-04-28 23:35 -22.51836 -45.95779 20202 ft 306 kts 23°
2026-04-28 23:35 -22.49969 -45.94697 20500 ft 308 kts 23°
2026-04-28 23:36 -22.48078 -45.93606 20812 ft 309 kts 23°
2026-04-28 23:36 -22.46172 -45.92503 21121 ft 311 kts 23°
2026-04-28 23:36 -22.44230 -45.91382 21433 ft 312 kts 22°
2026-04-28 23:36 -22.42309 -45.90272 21737 ft 314 kts 22°
2026-04-28 23:37 -22.40405 -45.89174 22039 ft 315 kts 22°
2026-04-28 23:37 -22.38457 -45.88045 22337 ft 317 kts 22°
2026-04-28 23:37 -22.36511 -45.86927 22642 ft 318 kts 22°
2026-04-28 23:37 -22.34553 -45.85799 22927 ft 319 kts 22°
2026-04-28 23:38 -22.32592 -45.84665 23195 ft 321 kts 22°
2026-04-28 23:38 -22.30613 -45.83528 23461 ft 322 kts 22°
2026-04-28 23:38 -22.28635 -45.82369 23731 ft 325 kts 25°
2026-04-28 23:38 -22.26815 -45.80870 23982 ft 332 kts 35°
2026-04-28 23:39 -22.25024 -45.79316 24210 ft 331 kts 31°
2026-04-28 23:39 -22.23211 -45.77807 24431 ft 333 kts 33°
2026-04-28 23:39 -22.21376 -45.76217 24665 ft 335 kts 33°
2026-04-28 23:39 -22.19582 -45.74648 24898 ft 336 kts 33°
2026-04-28 23:40 -22.17757 -45.73064 25139 ft 337 kts 33°
2026-04-28 23:40 -22.15926 -45.71494 25373 ft 338 kts 33°
2026-04-28 23:40 -22.14087 -45.69910 25601 ft 339 kts 33°
2026-04-28 23:40 -22.12243 -45.68314 25820 ft 340 kts 33°
2026-04-28 23:41 -22.10452 -45.66766 26048 ft 341 kts 33°
2026-04-28 23:41 -22.08594 -45.65166 26266 ft 342 kts 33°
2026-04-28 23:41 -22.06729 -45.63556 26491 ft 343 kts 33°
2026-04-28 23:41 -22.04866 -45.61953 26713 ft 344 kts 33°
2026-04-28 23:42 -22.02990 -45.60337 26942 ft 345 kts 33°
2026-04-28 23:42 -22.01107 -45.58711 27151 ft 346 kts 33°
2026-04-28 23:42 -21.99224 -45.57093 27449 ft 345 kts 33°
2026-04-28 23:42 -21.97352 -45.55479 27731 ft 345 kts 33°
2026-04-28 23:43 -21.95502 -45.53887 27994 ft 344 kts 33°
2026-04-28 23:43 -21.93630 -45.52278 28251 ft 344 kts 33°
2026-04-28 23:43 -21.91754 -45.50665 28510 ft 343 kts 33°
2026-04-28 23:43 -21.89894 -45.49065 28781 ft 342 kts 33°
2026-04-28 23:44 -21.88030 -45.47465 29011 ft 342 kts 33°
2026-04-28 23:44 -21.86167 -45.45862 29259 ft 341 kts 33°
2026-04-28 23:44 -21.84309 -45.44272 29507 ft 340 kts 33°
2026-04-28 23:44 -21.82481 -45.42698 29750 ft 340 kts 32°
2026-04-28 23:45 -21.80630 -45.41114 29986 ft 340 kts 33°
2026-04-28 23:45 -21.78782 -45.39525 30189 ft 339 kts 32°
2026-04-28 23:45 -21.76934 -45.37944 30377 ft 339 kts 33°
2026-04-28 23:45 -21.75086 -45.36359 30562 ft 338 kts 32°
2026-04-28 23:46 -21.73266 -45.34797 30728 ft 338 kts 32°
2026-04-28 23:46 -21.71402 -45.33203 30904 ft 338 kts 33°
2026-04-28 23:46 -21.69581 -45.31644 31079 ft 338 kts 33°
2026-04-28 23:46 -21.67741 -45.30065 31243 ft 338 kts 32°
2026-04-28 23:47 -21.65897 -45.28491 31402 ft 338 kts 33°
2026-04-28 23:47 -21.64058 -45.26915 31563 ft 337 kts 33°
2026-04-28 23:47 -21.62236 -45.25358 31712 ft 337 kts 33°
2026-04-28 23:47 -21.60403 -45.23790 31859 ft 337 kts 33°
2026-04-28 23:48 -21.58565 -45.22221 32011 ft 337 kts 33°
2026-04-28 23:48 -21.56725 -45.20649 32155 ft 337 kts 33°
2026-04-28 23:48 -21.54885 -45.19077 32293 ft 337 kts 33°
2026-04-28 23:48 -21.53045 -45.17507 32442 ft 337 kts 33°
2026-04-28 23:49 -21.51208 -45.15936 32585 ft 337 kts 33°
2026-04-28 23:49 -21.49373 -45.14371 32724 ft 337 kts 33°
2026-04-28 23:49 -21.47538 -45.12810 32856 ft 337 kts 33°
2026-04-28 23:49 -21.45699 -45.11239 32992 ft 337 kts 33°
2026-04-28 23:50 -21.43864 -45.09675 33118 ft 337 kts 33°
2026-04-28 23:50 -21.42017 -45.08100 33163 ft 340 kts 33°
2026-04-28 23:50 -21.38265 -45.04908 33188 ft 348 kts 33°
2026-04-28 23:51 -21.34413 -45.01632 33189 ft 357 kts 33°
2026-04-28 23:51 -21.30464 -44.98270 33165 ft 367 kts 33°
2026-04-28 23:52 -21.26415 -44.94833 33084 ft 379 kts 34°
2026-04-28 23:52 -21.22229 -44.91276 33089 ft 388 kts 34°
2026-04-28 23:53 -21.17948 -44.87642 33088 ft 396 kts 34°
2026-04-28 23:53 -21.13604 -44.83958 33110 ft 403 kts 34°
2026-04-28 23:54 -21.11412 -44.82098 33327 ft 401 kts 34°
2026-04-28 23:54 -21.09230 -44.80250 33541 ft 398 kts 34°
2026-04-28 23:54 -21.07066 -44.78414 33798 ft 395 kts 34°
2026-04-28 23:54 -21.04910 -44.76605 34046 ft 391 kts 32°
2026-04-28 23:55 -21.02707 -44.74934 34261 ft 387 kts 31°
2026-04-28 23:55 -21.00516 -44.73268 34468 ft 384 kts 32°
2026-04-28 23:55 -20.98353 -44.71603 34673 ft 381 kts 32°
2026-04-28 23:55 -20.96208 -44.69955 34873 ft 378 kts 31°
2026-04-28 23:56 -20.94070 -44.68327 35077 ft 375 kts 31°
2026-04-28 23:56 -20.91949 -44.66713 35280 ft 372 kts 31°
2026-04-28 23:56 -20.89865 -44.65118 35487 ft 368 kts 31°
2026-04-28 23:56 -20.87785 -44.63532 35685 ft 365 kts 31°
2026-04-28 23:57 -20.85729 -44.61961 35881 ft 361 kts 31°
2026-04-28 23:57 -20.83694 -44.60413 36078 ft 357 kts 31°
2026-04-28 23:57 -20.81704 -44.58894 36274 ft 353 kts 31°
2026-04-28 23:57 -20.79711 -44.57376 36414 ft 350 kts 30°
2026-04-28 23:58 -20.77737 -44.55876 36569 ft 346 kts 30°
2026-04-28 23:58 -20.75765 -44.54372 36511 ft 350 kts 30°
2026-04-28 23:58 -20.71766 -44.51321 36466 ft 355 kts 30°
2026-04-28 23:59 -20.67720 -44.48245 36469 ft 359 kts 30°
2026-04-28 23:59 -20.65687 -44.46696 36639 ft 355 kts 30°
2026-04-28 23:59 -20.63687 -44.45171 36865 ft 349 kts 30°
2026-04-29 00:00 -20.61728 -44.43683 37058 ft 344 kts 30°
2026-04-29 00:00 -20.59795 -44.42212 37035 ft 346 kts 30°
2026-04-29 00:00 -20.55862 -44.39223 37087 ft 347 kts 30°
2026-04-29 00:01 -20.51923 -44.36234 37094 ft 348 kts 30°
2026-04-29 00:01 -20.47949 -44.33217 37082 ft 351 kts 30°
2026-04-29 00:02 -20.43975 -44.30205 37086 ft 354 kts 31°
2026-04-29 00:02 -20.40008 -44.27043 37097 ft 357 kts 31°
2026-04-29 00:03 -20.35983 -44.23872 37097 ft 361 kts 32°
2026-04-29 00:03 -20.31942 -44.20655 37095 ft 364 kts 32°
2026-04-29 00:04 -20.27852 -44.17421 37091 ft 368 kts 32°
2026-04-29 00:04 -20.23752 -44.14170 37090 ft 371 kts 32°
2026-04-29 00:05 -20.19578 -44.10868 37091 ft 376 kts 32°
2026-04-29 00:05 -20.15362 -44.07536 37099 ft 380 kts 32°
2026-04-29 00:06 -20.11786 -44.04710 37122 ft 383 kts 32°
2026-04-29 00:06 -20.07539 -44.01354 37134 ft 388 kts 32°
2026-04-29 00:07 -20.03200 -43.97941 37150 ft 392 kts 32°
2026-04-29 00:07 -19.98788 -43.94467 37160 ft 397 kts 33°
2026-04-29 00:08 -19.94328 -43.90961 37168 ft 401 kts 33°
2026-04-29 00:08 -19.89829 -43.87424 37170 ft 405 kts 33°
2026-04-29 00:09 -19.85260 -43.83846 37161 ft 409 kts 30°
2026-04-29 00:09 -19.80530 -43.80444 37146 ft 413 kts 31°
2026-04-29 00:10 -19.75798 -43.76988 37147 ft 416 kts 31°
2026-04-29 00:10 -19.70976 -43.73513 37145 ft 420 kts 31°
2026-04-29 00:11 -19.66152 -43.70012 37136 ft 418 kts 31°
2026-04-29 00:12 -19.58982 -43.64835 37110 ft 414 kts 31°
2026-04-29 00:12 -19.55021 -43.61975 37092 ft 414 kts 31°
2026-04-29 00:13 -19.50272 -43.58547 37077 ft 412 kts 31°
2026-04-29 00:13 -19.45532 -43.55126 37071 ft 411 kts 31°
2026-04-29 00:14 -19.40813 -43.51728 37068 ft 410 kts 31°
2026-04-29 00:14 -19.36121 -43.48350 37068 ft 409 kts 31°
2026-04-29 00:15 -19.31473 -43.44837 37082 ft 411 kts 40°
2026-04-29 00:15 -19.27471 -43.40476 37083 ft 414 kts 47°
2026-04-29 00:16 -19.23693 -43.35868 37080 ft 414 kts 47°
2026-04-29 00:16 -19.19925 -43.31294 37080 ft 414 kts 47°
2026-04-29 00:17 -19.16143 -43.26711 37080 ft 414 kts 46°
2026-04-29 00:17 -19.14243 -43.24412 36964 ft 417 kts 47°
2026-04-29 00:17 -19.12310 -43.22078 36545 ft 422 kts 47°
2026-04-29 00:17 -19.10370 -43.19739 36047 ft 426 kts 47°
2026-04-29 00:18 -19.08386 -43.17356 35367 ft 434 kts 47°
2026-04-29 00:18 -19.06402 -43.14985 34920 ft 436 kts 47°
2026-04-29 00:18 -19.04363 -43.12547 34492 ft 436 kts 46°
2026-04-29 00:18 -19.02384 -43.10190 34066 ft 431 kts 47°
2026-04-29 00:19 -19.00413 -43.07835 33178 ft 428 kts 46°
2026-04-29 00:19 -18.98428 -43.05492 32208 ft 427 kts 45°
2026-04-29 00:19 -18.96417 -43.03194 31305 ft 425 kts 45°
2026-04-29 00:19 -18.94408 -43.00930 31049 ft 419 kts 45°
2026-04-29 00:20 -18.92428 -42.98698 30802 ft 416 kts 45°
2026-04-29 00:20 -18.88527 -42.94307 30363 ft 409 kts 44°
2026-04-29 00:20 -18.87228 -42.92853 30021 ft 412 kts 45°